Home > Weather > Lyon > Past weeks

Flag for France Past Weather in Lyon, Rhône-Alpes, France — Yesterday and Last 2 Weeks

Now
48 °F

Clear.


Feels Like: 48 °F
Forecast: 58 / 83 °F
Wind: No wind

Location: Lyon / Bron

Current Time: May 26, 2016 at 7:00:10 AM

Latest Report: May 26, 2016 at 6:30 AM


Visibility: 10 mi

Pressure: 29.95 "Hg

Humidity: 94%

Dew Point: 46 °F

Location of LyonLocation

Past Weather in Lyon — Graph

°F

Lyon Temperature Yesterday

Maximum temperature yesterday: 66 °F (at 7:30 PM)
Minimum temperature yesterday: 45 °F (at 5:00 AM)
Average temperature yesterday: 56 °F

High & Low Weather Summary for the Past Weeks

 TemperatureHumidityPressure
High81 °F (May 21, 4:30 PM)100% (May 11, 8:00 AM)30.21 "Hg (May 11, 8:00 AM)
Low39 °F (May 16, 5:30 AM)36% (May 22, 2:00 PM)29.56 "Hg (May 11, 5:30 PM)
Average57 °F73%29.95 "Hg
* Reported May 11 6:00 AM — May 26 6:00 AM, Lyon, Weather by CustomWeather, © 2016

Note: Actual official high and low records may vary slightly from our data, if they occured in-between our weather recording intervals... More about our weather records

Advertising

Lyon Weather History for the Previous 24 Hours

Scroll right to see more
 ConditionsComfort  
Time TempWeatherWind HumidityBarometerVisibility
6:00 AM
Thu, May 26
50 °FClear.2 mph94%29.95 "Hg10 mi
5:30 AM50 °FClear.2 mph94%29.95 "Hg10 mi
5:00 AM50 °FClear.2 mph94%29.95 "Hg10 mi
4:30 AM50 °FClear.No wind94%29.95 "Hg10 mi
4:00 AM50 °FClear.No wind94%29.95 "Hg10 mi
3:30 AM52 °FClear.No wind94%29.95 "Hg10 mi
3:00 AM52 °FClear.No wind94%29.95 "Hg10 mi
2:30 AM54 °FClear.5 mph94%29.95 "Hg10 mi
2:00 AM54 °FClear.1 mph94%29.95 "Hg10 mi
1:30 AM54 °FClear.2 mph94%29.95 "Hg10 mi
1:00 AM54 °FClear.3 mph94%29.95 "Hg10 mi
12:30 AM55 °FClear.2 mph94%29.95 "Hg10 mi
12:00 AM55 °FClear.2 mph88%29.95 "Hg10 mi
11:30 PM
Wed, May 25
55 °FClear.No wind88%29.95 "Hg10 mi
11:00 PM57 °FClear.1 mph88%29.95 "Hg10 mi
10:30 PM59 °FClear.No wind82%29.95 "Hg10 mi
10:00 PM61 °FSunny.2 mph77%29.95 "Hg10 mi
9:30 PM63 °FSunny.3 mph73%29.92 "Hg10 mi
9:00 PM63 °FSunny.3 mph77%29.92 "Hg10 mi
8:30 PM64 °FSunny.3 mph73%29.92 "Hg10 mi
8:00 PM64 °FPassing clouds.3 mph68%29.92 "HgN/A
7:30 PM66 °FPassing clouds.6 mph68%29.92 "HgN/A
7:00 PM64 °FPassing clouds.8 mph68%29.92 "HgN/A
6:30 PM64 °FPassing clouds.8 mph68%29.92 "HgN/A
6:00 PM64 °FPassing clouds.3 mph68%29.92 "HgN/A
5:30 PM63 °FPassing clouds.7 mph73%29.92 "HgN/A
5:00 PM64 °FSunny.2 mph68%29.92 "Hg10 mi
4:30 PM64 °FBroken clouds.5 mph68%29.92 "HgN/A
4:00 PM63 °FPassing clouds.5 mph68%29.92 "HgN/A
3:30 PM63 °FLight rain. Overcast.3 mph68%29.92 "HgN/A
3:00 PM63 °FLight rain. Clear.2 mph68%29.92 "HgN/A
2:30 PM63 °FOvercast.6 mph68%29.92 "HgN/A
2:00 PM63 °FSunny.6 mph68%29.92 "Hg10 mi
1:30 PM64 °FPassing clouds.7 mph60%29.92 "HgN/A
1:00 PM64 °FPartly sunny.7 mph64%29.92 "HgN/A
12:30 PM63 °FPartly sunny.2 mph73%29.92 "HgN/A
12:00 PM63 °FPartly sunny.2 mph68%29.92 "HgN/A
11:30 AM61 °FPartly sunny.3 mph72%29.92 "HgN/A
11:00 AM57 °FOvercast.2 mph77%29.92 "HgN/A
10:30 AM55 °FPartly sunny.3 mph82%29.92 "HgN/A
10:00 AM54 °FLow clouds.2 mph88%29.95 "HgN/A
9:30 AM52 °FLow clouds.1 mph88%29.95 "Hg5 mi
9:00 AM50 °FLow clouds.No wind94%29.95 "Hg5 mi
8:30 AM50 °FLow clouds.3 mph94%29.95 "Hg5 mi
8:00 AM48 °FLow clouds.No wind94%29.95 "HgN/A
7:30 AM46 °FLow clouds.No wind100%29.95 "HgN/A
7:00 AM45 °FPartly sunny.No wind100%29.95 "HgN/A
Weather by CustomWeather, © 2016

See weather overviewHow to use our weather pages